EW4609 Weather Reports


time (UTC)temp
C
wind
direction
speed
KPH
gust
KPH
rain 1hr
cm
rain 24hr
cm
rain mn
cm
humidity
%
barometer
mb
20260506111520 13 323 0.0 0.0 0.00 0.00 0.00 7 1012.0
20260506110104 13 5 0.0 0.0 0.00 0.00 0.00 7 1012.0
20260506104613 13 5 0.0 0.0 0.00 0.00 0.00 6 1011.8
20260506103033 13 27 0.0 0.0 0.00 0.00 0.00 4 1011.4
20260506101545 14 30 0.0 0.0 0.00 0.00 0.00 6 1011.2
20260506100007 14 28 0.0 0.0 0.00 0.00 0.00 4 1011.0
20260506094507 14 41 0.0 0.0 0.00 0.00 0.00 1 1010.7
20260506093044 14 40 0.0 0.0 0.00 0.00 0.00 1 1010.7
20260506091537 15 34 0.0 0.0 0.00 0.00 0.00 1 1010.5
20260506090021 15 30 0.0 0.0 0.00 0.00 0.00 1 1010.5
20260506084520 15 37 0.0 0.0 0.00 0.00 0.00 1 1010.4
20260506083012 15 37 0.0 0.0 0.00 0.00 0.00 1 1010.0
20260506081508 15 32 0.0 0.0 0.00 0.00 0.00 1 1010.2
20260506073103 15 32 0.0 0.0 0.00 0.00 0.00 1 1009.6
20260506071605 15 30 0.0 0.0 0.00 0.00 0.00 1 1009.7
20260506061559 16 43 0.0 0.0 0.00 0.00 0.00 1 1009.7
20260506044541 17 317 0.0 0.0 0.00 0.00 0.00 1 1009.5
20260506043021 18 309 0.0 0.0 0.00 0.00 0.00 1 1009.6
20260506041525 18 43 0.0 0.0 0.00 0.00 0.00 1 1009.5
20260506040054 18 32 0.0 0.0 0.00 0.00 0.00 1 1009.5
20260506034553 19 26 0.0 0.0 0.00 0.00 0.00 1 1008.8
20260506033031 19 63 0.0 0.0 0.00 0.00 0.00 1 1008.5
20260506031526 20 46 0.0 0.0 0.00 0.00 0.00 2 1008.2
20260506030002 20 319 0.0 0.0 0.00 0.00 0.00 8 1008.2
20260506024600 20 9 0.0 0.0 0.00 0.00 0.00 14 1007.9
20260506023040 20 324 0.0 0.0 0.00 0.00 0.00 18 1007.7
20260506021537 21 53 0.0 0.0 0.00 0.00 0.00 19 1007.1
20260506020022 21 326 0.0 0.0 0.00 0.00 0.00 20 1006.9
20260506014612 22 24 0.0 0.0 0.00 0.00 0.00 21 1006.3
20260506013053 22 325 0.0 0.0 0.00 0.00 0.00 24 1006.2
20260506011550 22 34 0.0 0.0 0.00 0.00 0.00 23 1005.8
20260506010030 23 34 0.0 0.0 0.00 0.00 0.00 27 1005.9
20260506004536 23 326 0.0 0.0 0.00 0.00 0.00 30 1005.6
20260506003004 25 49 0.0 0.0 0.00 0.00 0.00 33 1005.3
20260506001619 25 66 0.0 0.0 0.00 0.00 0.00 36 1004.7
20260506000045 26 69 0.0 0.0 0.00 0.00 0.00 38 1004.8
20260505234545 27 315 0.0 0.0 0.00 0.00 0.00 39 1004.3
20260505233014 27 5 0.0 0.0 0.00 0.00 0.00 41 1004.3
20260505231510 28 326 0.0 0.0 0.00 0.00 0.00 42 1004.1
20260505230107 29 317 0.0 0.0 0.00 0.00 0.00 42 1004.0
20260505224550 30 321 0.0 0.0 0.00 0.00 0.00 41 1003.7
20260505223053 30 313 0.0 0.0 0.00 0.00 0.00 41 1003.6
20260505221546 31 309 0.0 0.0 0.00 0.00 0.00 40 1003.3
20260505220040 32 258 0.0 0.0 0.00 0.00 0.00 38 1003.0
20260505214548 32 260 0.0 0.0 0.00 0.00 0.00 39 1003.2
20260505213043 32 255 0.0 0.0 0.00 0.00 0.00 38 1003.2
20260505211521 32 259 0.0 0.0 0.00 0.00 0.00 38 1003.4
20260505210006 31 252 0.0 0.0 0.00 0.00 0.00 37 1003.6
20260505204600 31 254 0.0 0.0 0.00 0.00 0.00 36 1003.8
20260505203056 31 262 0.0 0.0 0.00 0.00 0.00 35 1004.0
20260505201557 31 261 0.0 0.0 0.00 0.00 0.00 33 1004.2
20260505200046 31 254 0.0 0.0 0.00 0.00 0.00 28 1004.4
20260505194543 30 252 0.0 0.0 0.00 0.00 0.00 24 1004.3
20260505193045 30 254 0.0 0.0 0.00 0.00 0.00 20 1004.5
20260505191538 29 251 0.0 0.0 0.00 0.00 0.00 14 1004.4
20260505190024 28 267 0.0 0.0 0.00 0.00 0.00 8 1004.5
20260505184507 28 263 0.0 0.0 0.00 0.00 0.00 4 1004.7
20260505183102 27 250 0.0 0.0 0.00 0.00 0.00 3 1004.8
20260505181541 27 243 0.0 0.0 0.00 0.00 0.00 1 1004.7
20260505180041 27 250 0.0 0.0 0.00 0.00 0.00 1 1004.9
20260505174520 27 225 0.0 0.0 0.00 0.00 0.00 1 1004.8
20260505173010 27 292 0.0 0.0 0.00 0.00 0.00 1 1004.9
20260505171551 26 253 0.0 0.0 0.00 0.00 0.00 1 1005.0
20260505170044 26 265 0.0 0.0 0.00 0.00 0.00 1 1004.9
20260505164533 26 236 0.0 0.0 0.00 0.00 0.00 1 1004.9
20260505163023 25 252 0.0 0.0 0.00 0.00 0.00 1 1004.9
20260505161501 25 255 0.0 0.0 0.00 0.00 0.00 1 1004.9
20260505153033 23 255 0.0 0.0 0.00 0.00 0.00 1 1004.6
20260505151510 23 265 0.0 0.0 0.00 0.00 0.00 1 1004.8
20260505140117 22 264 0.0 0.0 0.00 0.00 0.00 1 1004.8
20260505124533 21 259 0.0 0.0 0.00 0.00 0.00 1 1004.3
20260505123046 21 217 0.0 0.0 0.00 0.00 0.00 1 1004.1
20260505121512 20 272 0.0 0.0 0.00 0.00 0.00 1 1003.9
20260505120010 20 240 0.0 0.0 0.00 0.00 0.00 1 1003.6
20260505114508 20 228 0.0 0.0 0.00 0.00 0.00 1 1003.8
20260505113009 20 263 0.0 0.0 0.00 0.00 0.00 1 1003.5